[[{"header":{"parameterUnit":"m.s-1","parameterCategory":1,"la1":30.2991,"la2":30.254,"lo1":-89.0895,"lo2":-89.0444,"dy":0.0017,"dx":0.0017,"nx":28,"ny":28,"refTime":"2024-07-26T09:00:00:Z","depth":0,"parameterNumber":2,"parameterNumberName":"U-component_of_WINDS"},"data":[0,0,0,0,0,0,0,0,0,0,0,0,0,0,0,0,0,0,0,0,0,0,0,0,0,0,0,0,0,0,0,0,0,0,0,0,0,0,0,0,0,0,0,0,0,0,0,0,0,0,0,0,0,0,0,0,0,0,-2.5725,-2.5725,0,-2.5724,-2.5724,-2.5724,-2.5594,-2.5591,-2.5587,-2.5584,-2.5588,-2.5591,-2.5594,0,0,0,0,0,0,0,0,0,0,0,0,0,-2.5617,-2.562,-2.5725,-2.5725,-2.5725,-2.5724,-2.5724,-2.5724,-2.5595,-2.5591,-2.5586,-2.5583,-2.5587,-2.559,-2.5594,0,0,0,0,0,0,0,0,0,0,0,0,0,-2.5645,-2.5621,-2.5725,-2.566,-2.5654,-2.5724,-2.5724,-2.5724,-2.5596,-2.559,-2.5585,-2.5581,-2.5585,-2.559,-2.5595,-2.5728,0,0,-2.561,-2.5612,0,0,0,0,0,0,0,0,-2.5644,-2.5649,-2.567,-2.5665,-2.5658,-2.5654,-2.5687,-2.5725,-2.5597,-2.5618,-2.5584,-2.5578,-2.5614,-2.5616,-2.5628,-2.5728,-2.5728,-2.561,-2.5613,-2.5616,-2.5617,0,0,0,0,0,0,0,-2.5642,-2.5649,-2.5724,-2.567,-2.5663,-2.5632,-2.563,-2.5694,-2.5645,-2.5616,-2.5606,-2.5608,-2.561,-2.5623,-2.5627,-2.5728,-2.561,-2.5615,-2.5618,-2.562,-2.5937,-2.5942,0,0,0,0,0,0,-2.5648,-2.5648,-2.5725,-2.5724,-2.5638,-2.5638,-2.5636,-2.5661,-2.5644,-2.5636,-2.5612,-2.5602,-2.5617,-2.5621,-2.5626,-2.5781,-2.5615,-2.562,-2.5623,-2.5931,-2.5938,-2.5944,0,0,0,0,0,0,-2.5647,-2.5656,-2.5725,-2.5684,-2.569,-2.5645,-2.5674,-2.5663,-2.5676,-2.5641,-2.5632,-2.5634,-2.5613,-2.5619,-2.5703,-2.5779,-2.5622,-2.5627,-2.5925,-2.5933,-2.5941,-2.6091,0,0,0,0,0,0,-2.5644,-2.5657,-2.5706,-2.5686,-2.5692,-2.5801,-2.5678,-2.5667,-2.5684,-2.5671,-2.566,-2.5653,-2.561,-2.5696,-2.5708,-2.5783,-2.5631,-2.5918,-2.5929,-2.5938,-2.6079,-2.6103,-2.6124,0,0,0,0,0,-2.5641,-2.575,-2.5709,-2.5719,-2.5753,-2.5806,-2.581,-2.5757,-2.5691,-2.5741,-2.5718,-2.5653,-2.5768,-2.5706,-2.5718,-2.5796,-2.5913,-2.5926,-2.5938,-2.6069,-2.6098,-2.6123,0,0,0,0,0,0,-2.5782,-2.5746,-2.5701,-2.5806,-2.581,-2.5784,-2.5845,-2.579,-2.5814,-2.58,-2.5734,-2.5733,-2.5827,-2.5819,-2.5751,-2.5923,-2.5829,-2.5845,-2.5925,-2.5953,-2.5975,-2.5975,-2.5635,0,0,0,0,0,-2.5825,-2.587,-2.5836,-2.5932,-2.5936,-2.589,-2.5911,-2.587,-2.5872,-2.5873,-2.5856,-2.5862,-2.5899,-2.5925,-2.5957,-2.6076,-2.6072,-2.6136,-2.6158,-2.6177,-2.6191,-2.6253,-2.6281,-2.5984,-2.5984,-2.5984,0,0,-2.5916,-2.5901,-2.5934,-2.596,-2.5958,-2.6006,-2.5893,-2.5949,-2.5984,-2.5882,-2.5959,-2.5948,-2.5949,-2.6051,-2.6095,-2.6048,-2.6272,-2.6192,-2.6207,-2.6212,-2.6269,-2.6297,-2.6322,-2.5993,-2.5991,-2.599,0,0,-2.6105,-2.6098,-2.6177,-2.6177,-2.6174,-2.6143,-2.6162,-2.6144,-2.6132,-2.6208,-2.6132,-2.6173,-2.6239,-2.6243,-2.6254,-2.6443,-2.6384,-2.6455,-2.6573,-2.6635,-2.6658,-2.6679,-2.6747,-2.6772,-2.6469,-2.647,-2.647,0,-2.6218,-2.6286,-2.6225,-2.6286,-2.63,-2.6207,-2.6287,-2.629,-2.63,-2.6312,-2.6257,-2.6337,-2.6332,-2.6433,-2.6479,-2.649,-2.6511,-2.6457,-2.6659,-2.6679,-2.6698,-2.6762,-2.6787,-2.6478,-2.6477,-2.6477,-2.6476,0,-2.6426,-2.6474,-2.6539,-2.6548,-2.6569,-2.6639,-2.6589,-2.6618,-2.6574,-2.6549,-2.6628,-2.6618,-2.6646,-2.6667,-2.6626,-2.6763,-2.6733,-2.6671,-2.6575,-2.6736,-2.6795,-2.6819,-2.6491,-2.6488,-2.6485,-2.6483,0,0,-2.6706,-2.6679,-2.6704,-2.6706,-2.6696,-2.6733,-2.6799,-2.6825,-2.6851,-2.686,-2.6914,-2.6971,-2.6912,-2.6924,-2.6883,-2.6937,-2.7087,-2.6867,-2.6866,-2.6909,-2.7238,-2.7286,-2.7316,-2.7047,-2.7052,-2.7055,-2.7238,0,-2.689,-2.7,-2.6946,-2.7063,-2.7107,-2.7019,-2.7076,-2.7077,-2.7054,-2.709,-2.7065,-2.7106,-2.7025,-2.7032,-2.7081,-2.7059,-2.7153,-2.7044,-2.7099,-2.7102,-2.7102,-2.7347,-2.7398,-2.7571,-2.7261,-2.7265,-2.7268,0,-2.7119,-2.7136,-2.7257,-2.7237,-2.7254,-2.7307,-2.7326,-2.736,-2.7359,-2.7338,-2.7352,-2.7297,-2.7361,-2.7265,-2.7353,-2.728,-2.7299,-2.7291,-2.7297,-2.7301,-2.7195,-2.7359,-2.7625,-2.7652,-2.7303,-2.73,-2.7298,0,-2.7313,-2.7366,-2.7444,-2.7449,-2.7428,-2.7467,-2.7461,-2.7454,-2.7473,-2.7489,-2.7501,-2.7526,-2.754,-2.7561,-2.7515,-2.7449,-2.7609,-2.751,-2.7596,-2.7597,-2.7635,-2.7633,-2.7909,-2.7645,-2.7645,-2.7645,-2.7644,0,-2.7524,-2.7602,-2.7531,-2.758,-2.7664,-2.7601,-2.7687,-2.7671,-2.7665,-2.771,-2.7635,-2.7679,-2.7614,-2.7652,-2.7616,-2.7695,-2.7702,-2.7688,-2.7678,-2.7696,-2.7698,-2.7708,-2.7695,-2.7651,-2.765,-2.7649,-2.7647,0,-2.7756,-2.7711,-2.7791,-2.7763,-2.7758,-2.7822,-2.7799,-2.7843,-2.7815,-2.7873,-2.7883,-2.7839,-2.7879,-2.7834,-2.7872,-2.7848,-2.7954,-2.7926,-2.7954,-2.7947,-2.8036,-2.8028,-2.8329,-2.8366,-2.8078,-2.808,-2.8083,0,-2.7894,-2.7952,-2.793,-2.7953,-2.795,-2.799,-2.8008,-2.7948,-2.797,-2.7972,-2.8017,-2.805,-2.8074,-2.8143,-2.8115,-2.8144,-2.8116,-2.8219,-2.812,-2.8136,-2.8119,-2.8116,-2.8122,-2.824,-2.8244,-2.8247,-2.8249,0,-2.8145,-2.812,-2.8148,-2.8168,-2.8191,-2.8205,-2.8213,-2.8237,-2.8175,-2.8203,-2.8243,-2.8261,-2.8298,-2.8333,-2.8353,-2.8347,-2.8289,-2.828,-2.8301,-2.8321,-2.8335,-2.8329,-2.8011,-2.8274,-2.8271,-2.827,-2.8268,-2.8267,-2.8335,-2.8381,-2.8373,-2.8407,-2.8406,-2.8415,-2.8455,-2.843,-2.8462,-2.8486,-2.8448,-2.8498,-2.8494,-2.8515,-2.8516,-2.8554,-2.851,-2.8541,-2.8549,-2.8558,-2.8572,-2.8328,-2.8557,-2.8557,-2.8556,-2.8555,-2.8555,0,-2.8583,-2.8572,-2.8603,-2.8616,-2.8643,-2.8582,-2.8588,-2.8615,-2.8658,-2.8659,-2.8683,-2.8729,-2.8761,-2.8736,-2.8763,-2.8799,-2.8773,-2.8809,-2.8806,-2.8806,-2.8609,-2.8588,-2.8829,-2.8829,-2.8829,-2.8829,-2.8829,-2.8829,-2.8715,-2.879,-2.8764,-2.8838,-2.8827,-2.8873,-2.8882,-2.889,-2.889,-2.8943,-2.8969,-2.8951,-2.8942,-2.8968,-2.8995,-2.8987,-2.9001,-2.9047,-2.9029,-2.8847,-2.882,-2.8794,-2.8774,-2.905,-2.9051,-2.9223,-2.9224,-2.9225]},{"header":{"parameterUnit":"m.s-1","parameterCategory":1,"la1":30.2991,"la2":30.254,"lo1":-89.0895,"lo2":-89.0444,"dy":0.0017,"dx":0.0017,"nx":28,"ny":28,"refTime":"2024-07-26T09:00:00:Z","depth":0,"parameterNumber":3,"parameterNumberName":"V-component_of_WINDS"},"data":[0,0,0,0,0,0,0,0,0,0,0,0,0,0,0,0,0,0,0,0,0,0,0,0,0,0,0,0,0,0,0,0,0,0,0,0,0,0,0,0,0,0,0,0,0,0,0,0,0,0,0,0,0,0,0,0,0,0,-2.906,-2.906,0,-2.9039,-2.9039,-2.9038,-2.8973,-2.8972,-2.897,-2.8969,-2.8947,-2.8948,-2.8949,0,0,0,0,0,0,0,0,0,0,0,0,0,-2.9043,-2.9044,-2.906,-2.906,-2.9059,-2.9039,-2.9039,-2.9038,-2.8973,-2.8972,-2.897,-2.8968,-2.8947,-2.8948,-2.8949,0,0,0,0,0,0,0,0,0,0,0,0,0,-2.9039,-2.9044,-2.906,-2.9025,-2.9021,-2.9039,-2.9039,-2.9038,-2.8974,-2.8972,-2.897,-2.8968,-2.8947,-2.8948,-2.8949,-2.8999,0,0,-2.8952,-2.8953,0,0,0,0,0,0,0,0,-2.9039,-2.904,-2.903,-2.9027,-2.9023,-2.9006,-2.9024,-2.9025,-2.8974,-2.8992,-2.8969,-2.8966,-2.8969,-2.8968,-2.8969,-2.8998,-2.8997,-2.8952,-2.8953,-2.8954,-2.8954,0,0,0,0,0,0,0,-2.904,-2.904,-2.9052,-2.903,-2.9026,-2.9009,-2.9006,-2.9024,-2.8993,-2.899,-2.8985,-2.8984,-2.8966,-2.8968,-2.8968,-2.8997,-2.8952,-2.8953,-2.8954,-2.8955,-2.9063,-2.9065,0,0,0,0,0,0,-2.9045,-2.9041,-2.9052,-2.9051,-2.9026,-2.9011,-2.9008,-2.9014,-2.8992,-2.8987,-2.8986,-2.8981,-2.8967,-2.8966,-2.8967,-2.9022,-2.8954,-2.8955,-2.8955,-2.9061,-2.9064,-2.9066,0,0,0,0,0,0,-2.9045,-2.9047,-2.9053,-2.9045,-2.9044,-2.9014,-2.9021,-2.9015,-2.9016,-2.8989,-2.8983,-2.8993,-2.8965,-2.8965,-2.8991,-2.902,-2.8955,-2.8956,-2.9059,-2.9062,-2.9065,-2.9134,0,0,0,0,0,0,-2.9045,-2.9047,-2.9066,-2.9045,-2.9045,-2.9078,-2.9023,-2.9016,-2.9018,-2.9012,-2.8994,-2.8989,-2.8963,-2.8989,-2.8992,-2.9021,-2.8957,-2.9056,-2.906,-2.9064,-2.9129,-2.914,-2.9148,0,0,0,0,0,-2.9044,-2.9087,-2.9068,-2.9069,-2.9068,-2.908,-2.908,-2.905,-2.9021,-2.9039,-2.9021,-2.8989,-2.9017,-2.8993,-2.8995,-2.9024,-2.9054,-2.9059,-2.9064,-2.9125,-2.9137,-2.9148,0,0,0,0,0,0,-2.9113,-2.9084,-2.9062,-2.9099,-2.9093,-2.9069,-2.9092,-2.9064,-2.9066,-2.906,-2.9022,-2.9018,-2.9049,-2.9039,-2.9013,-2.907,-2.903,-2.9035,-2.9076,-2.9087,-2.9097,-2.9098,-2.8958,0,0,0,0,0,-2.9132,-2.9145,-2.9119,-2.9154,-2.9152,-2.9123,-2.9127,-2.9104,-2.9095,-2.9092,-2.9076,-2.9069,-2.9076,-2.9081,-2.9086,-2.9128,-2.9122,-2.9149,-2.9158,-2.9166,-2.9172,-2.919,-2.9202,-2.9083,-2.9082,-2.9082,0,0,-2.9172,-2.9158,-2.9168,-2.9167,-2.916,-2.9172,-2.9121,-2.9137,-2.9146,-2.9095,-2.9118,-2.9106,-2.9095,-2.9129,-2.9142,-2.9121,-2.9203,-2.9173,-2.9179,-2.918,-2.9197,-2.9208,-2.9218,-2.9086,-2.9085,-2.9085,0,0,-2.9252,-2.9243,-2.9271,-2.9264,-2.9252,-2.9232,-2.9239,-2.9219,-2.9209,-2.9231,-2.9193,-2.9203,-2.9216,-2.9209,-2.9207,-2.9282,-2.9252,-2.9285,-2.9335,-2.9354,-2.9363,-2.9371,-2.9396,-2.9406,-2.929,-2.9291,-2.9291,0,-2.9304,-2.9322,-2.9289,-2.9307,-2.9307,-2.926,-2.9287,-2.9282,-2.9273,-2.9273,-2.925,-2.9264,-2.9254,-2.9284,-2.9302,-2.9303,-2.9308,-2.9287,-2.9365,-2.9372,-2.9379,-2.9403,-2.9413,-2.9295,-2.9294,-2.9294,-2.9293,0,-2.9384,-2.9398,-2.9421,-2.9412,-2.9415,-2.9438,-2.9407,-2.9414,-2.939,-2.9373,-2.9395,-2.9381,-2.9381,-2.9387,-2.9365,-2.9413,-2.94,-2.9372,-2.933,-2.9395,-2.9417,-2.9426,-2.93,-2.9299,-2.9298,-2.9297,0,0,-2.9507,-2.9479,-2.9488,-2.9482,-2.9465,-2.9475,-2.9494,-2.9494,-2.95,-2.9495,-2.9509,-2.9521,-2.9493,-2.9491,-2.9468,-2.9485,-2.9543,-2.9453,-2.9453,-2.9469,-2.9593,-2.9614,-2.9625,-2.9523,-2.9525,-2.9526,-2.9594,0,-2.9581,-2.9613,-2.9583,-2.9621,-2.9631,-2.9587,-2.9604,-2.9595,-2.9579,-2.9585,-2.9566,-2.9574,-2.9538,-2.9537,-2.9552,-2.9533,-2.9567,-2.9528,-2.9535,-2.9536,-2.9538,-2.9637,-2.9659,-2.9724,-2.9602,-2.9603,-2.9604,0,-2.9672,-2.967,-2.9708,-2.9687,-2.969,-2.9706,-2.9702,-2.9709,-2.9698,-2.9684,-2.9682,-2.9653,-2.9669,-2.9629,-2.9651,-2.9625,-2.9626,-2.9617,-2.9619,-2.9618,-2.9573,-2.9636,-2.9744,-2.9753,-2.9618,-2.9616,-2.9616,0,-2.9755,-2.9762,-2.9785,-2.9783,-2.9759,-2.9771,-2.9761,-2.9747,-2.9749,-2.9745,-2.9745,-2.9745,-2.9744,-2.9743,-2.9714,-2.9688,-2.9739,-2.9697,-2.9727,-2.9728,-2.9739,-2.9739,-2.9847,-2.9743,-2.9743,-2.9743,-2.9742,0,-2.984,-2.9865,-2.9822,-2.9837,-2.9863,-2.9827,-2.9854,-2.984,-2.9828,-2.9838,-2.98,-2.981,-2.9772,-2.9778,-2.9755,-2.9776,-2.9776,-2.9765,-2.9758,-2.9768,-2.9769,-2.9767,-2.9761,-2.9745,-2.9745,-2.9744,-2.9744,0,-2.9937,-2.991,-2.9932,-2.9907,-2.9901,-2.9922,-2.99,-2.9912,-2.9892,-2.9905,-2.9907,-2.9876,-2.9881,-2.9852,-2.9852,-2.9837,-2.9867,-2.9854,-2.9871,-2.9867,-2.9898,-2.9895,-3.0008,-3.002,-2.991,-2.9911,-2.9912,0,-2.9992,-3.001,-2.9987,-2.9991,-2.9983,-2.999,-2.9991,-2.9956,-2.9958,-2.9945,-2.9958,-2.996,-2.9959,-2.9969,-2.9946,-2.9946,-2.9931,-2.997,-2.993,-2.9938,-2.9929,-2.9928,-2.9929,-2.9978,-2.998,-2.9981,-2.9982,0,-3.0093,-3.0078,-3.008,-3.0077,-3.0079,-3.0075,-3.0069,-3.0074,-3.0037,-3.0041,-3.0045,-3.0044,-3.0043,-3.0045,-3.0039,-3.0029,-2.9999,-2.9995,-3.0001,-3.001,-3.0019,-3.0013,-2.9892,-2.9992,-2.9991,-2.999,-2.999,-2.9989,-3.0169,-3.0182,-3.0167,-3.0171,-3.0162,-3.0157,-3.0166,-3.0147,-3.015,-3.0146,-3.0126,-3.0133,-3.0119,-3.0108,-3.0101,-3.0105,-3.0086,-3.0097,-3.0099,-3.0102,-3.0106,-3.0019,-3.0105,-3.0104,-3.0104,-3.0104,-3.0103,0,-3.0266,-3.0254,-3.0257,-3.0249,-3.0251,-3.0223,-3.0214,-3.0217,-3.0224,-3.0214,-3.0214,-3.0217,-3.0218,-3.0196,-3.0193,-3.0201,-3.0187,-3.0202,-3.02,-3.0198,-3.0124,-3.0118,-3.0213,-3.0213,-3.0213,-3.0213,-3.0213,-3.0213,-3.0317,-3.0337,-3.032,-3.0334,-3.0322,-3.0329,-3.0326,-3.032,-3.0311,-3.0317,-3.0317,-3.0302,-3.0286,-3.0282,-3.0281,-3.0275,-3.0275,-3.0294,-3.0282,-3.0214,-3.0203,-3.0193,-3.0187,-3.0294,-3.0295,-3.0355,-3.0355,-3.0356]}]]